"Pseudo-MPEC" for C11EKU5

Created 2025 Feb 7 4:31:05 UT using Find_Orb

Click here for an explanation of pseudo-MPECs

 
 Astrometry: 
     C11EKU5* C2025 02 04.30375907 51 43.384+46 40 30.90   ~248H 21.36GVNEOCPV00
     C11EKU5  C2025 02 04.30942107 51 42.620+46 39 51.73   ~248H 21.69GVNEOCPV00
     C11EKU5  C2025 02 04.31503107 51 41.872+46 39 12.56   ~248H 22.05GVNEOCPV00
     C11EKU5  C2025 02 04.32062407 51 41.119+46 38 33.54   ~248H 21.83GVNEOCPV00
     C11EKU5  C2025 02 04.39949007 51 30.850+46 29 22.60   ~24BV 22.1 RVNEOCP291
     C11EKU5  C2025 02 04.40674007 51 29.990+46 28 31.40   ~24BV 22.2 RVNEOCP291
     C11EKU5  C2025 02 04.41404607 51 29.020+46 27 40.30   ~24BV 22.1 RVNEOCP291
     C11EKU5 KC2025 02 05.29073707 49 57.587+44 48 16.13   ~257V 20.92GVNEOCPV06
     C11EKU5 KC2025 02 05.29452407 49 57.173+44 47 50.68   ~257V 21.30GVNEOCPV06
     C11EKU5 KC2025 02 05.29831207 49 56.726+44 47 25.08   ~257V 21.41GVNEOCPV06
     C11EKU5 KC2025 02 05.30210207 49 56.280+44 46 59.66   ~257V 21.42GVNEOCPV06
     C11EKU5  C2025 02 07.11789007 47 19.910+41 29 47.50   ~274H       VNEOCP291
     C11EKU5  C2025 02 07.14796007 47 17.310+41 26 40.20   ~274H 21.8 RVNEOCP291

Station data:
(291) LPL/Spacewatch II  (N31.961669 W111.599905)  US/Arizona.  Observers J.
   V. Scotti, R. S. McMillan. 1.8-m f/2.7 reflector + CCD.
(V00) Kitt Peak-Bok  (N31.963125 W111.600190)  US/Arizona.  Observers T. A.
   Pruyne, B. M. Africano, E. J. Christensen, G. A. Farneth, D. C. Fuls, A.
   R. Gibbs, A. D. Grauer, H. Gröller, J. A. Johnson, R. A. Kowalski, S. M.
   Larson, G. J. Leonard, D. Rankin, R. L. Seaman, F. C. Shelly, K. W.
   Wierzchoś. 2.25-m reflector + 4x4K mosaic CCD.
(V06) Catalina Sky Survey-Kuiper  (N32.416871 W110.732550)  US/Arizona.
   Observers T. A. Pruyne, B. M. Africano, E. J. Christensen, G. A. Farneth,
   D. C. Fuls, A. R. Gibbs, A. D. Grauer, H. Gröller, J. A. Johnson, R. A.
   Kowalski, S. M. Larson, G. J. Leonard, D. Rankin, R. L. Seaman, F. C.
   Shelly, K. W. Wierzchoś. 1.55-m reflector + CCD.

Orbital elements:  C11EKU5
   Perihelion 2024 Nov 20.79846 +/- 0.343 TT = 19:09:47 (JD 2460635.29846)
Epoch 2025 Feb  7.0 TT = JDT 2460713.5   Earth MOID: 0.1391      AutoNEOCP
M  44.64307998 +/- 0.8              (J2000 ecliptic)
n   0.57087214 +/- 0.00878          Peri.   84.50711 +/- 0.44
a   1.43916353 +/- 0.0147           Node   323.43987 +/- 0.10
e   0.3652838 +/- 0.0057            Incl.   21.68508 +/- 0.30
P   1.726/630.602d         H 23.49  G  0.15   U  9.6
q 0.91346030 +/- 0.00126    Q 1.96486676 +/- 0.0283
From 13 observations 2025 Feb. 4-7; mean residual 0".27
Residuals in arcseconds: 
250204 V00  .23+  .50-    250204 291  .22+  .28+    250205 V06  .02+  .09+    
250204 V00  .16+  .23-    250204 291  .38-  .47+    250207 291  .31-  .16+    
250204 V00  .16+  .30-    250205 V06  .28-  .15-    250207 291  .36+  .14-    
250204 V00  .06+  .32-    250205 V06  .06+  .05-    
250204 291  .30-  .60+    250205 V06  .04+  .08-    

Ephemerides (geocentric):
Date (UTC) HH   RA             Dec           delta  r     elong  mag " sig PA
---- --------  ------------   ------------  ------ ------ -----  --- --------
2025 02 07 05  07 47 11.074   +41 20 18.74  .25146 1.2045 146.8 22.1 .152  80
2025 02 07 06  07 47 07.943   +41 15 57.04  .25169 1.2048 146.8 22.1 .145  79
2025 02 07 07  07 47 04.832   +41 11 35.74  .25192 1.2050 146.8 22.1 .138  79
2025 02 07 08  07 47 01.740   +41 07 14.84  .25215 1.2052 146.8 22.1 .130  79
2025 02 07 09  07 46 58.667   +41 02 54.34  .25238 1.2055 146.8 22.1 .122  79
2025 02 07 10  07 46 55.613   +40 58 34.24  .25262 1.2057 146.8 22.1 .114  79
2025 02 07 11  07 46 52.579   +40 54 14.53  .25285 1.2059 146.8 22.1 .106  78
2025 02 07 12  07 46 49.564   +40 49 55.23  .25308 1.2062 146.8 22.1 .097  78
2025 02 07 13  07 46 46.568   +40 45 36.33  .25332 1.2064 146.8 22.1 .087  77
2025 02 07 14  07 46 43.591   +40 41 17.83  .25355 1.2066 146.8 22.1 .078  76
2025 02 07 15  07 46 40.633   +40 36 59.74  .25379 1.2069 146.9 22.1 .068  75
2025 02 07 16  07 46 37.694   +40 32 42.04  .25402 1.2071 146.9 22.1 .057  73
2025 02 07 17  07 46 34.773   +40 28 24.74  .25426 1.2073 146.9 22.1 .047  71
2025 02 07 18  07 46 31.871   +40 24 07.85  .25449 1.2076 146.9 22.1 .036  67
2025 02 07 19  07 46 28.987   +40 19 51.36  .25473 1.2078 146.9 22.1 .025  58
2025 02 07 20  07 46 26.122   +40 15 35.27  .25497 1.2080 146.9 22.1 .016  39
2025 02 07 21  07 46 23.275   +40 11 19.58  .25521 1.2083 146.9 22.1 .011 167
2025 02 07 22  07 46 20.446   +40 07 04.29  .25545 1.2085 146.9 22.1 .018 123
2025 02 07 23  07 46 17.635   +40 02 49.41  .25569 1.2087 146.9 22.1 .029 107
2025 02 08 00  07 46 14.843   +39 58 34.93  .25593 1.2090 146.9 22.1 .042 100
2025 02 08 01  07 46 12.068   +39 54 20.85  .25617 1.2092 146.9 22.1 .055  96
2025 02 08 02  07 46 09.312   +39 50 07.17  .25641 1.2094 146.9 22.1 .069  94
2025 02 08 03  07 46 06.573   +39 45 53.90  .25665 1.2097 146.9 22.1 .083  92
2025 02 08 04  07 46 03.852   +39 41 41.03  .25689 1.2099 146.9 22.1 .098  91
2025 02 08 05  07 46 01.148   +39 37 28.56  .25713 1.2101 146.9 22.1 .113  91
2025 02 08 06  07 45 58.462   +39 33 16.50  .25738 1.2104 146.9 22.1 .128  90
2025 02 08 07  07 45 55.794   +39 29 04.84  .25762 1.2106 147.0 22.2 .144  89
2025 02 08 08  07 45 53.143   +39 24 53.58  .25786 1.2108 147.0 22.2 .160  89
2025 02 08 09  07 45 50.509   +39 20 42.72  .25811 1.2111 147.0 22.2 .176  89
2025 02 08 10  07 45 47.892   +39 16 32.27  .25835 1.2113 147.0 22.2 .193  88
2025 02 08 11  07 45 45.293   +39 12 22.22  .25860 1.2115 147.0 22.2 .210  88
2025 02 08 12  07 45 42.711   +39 08 12.58  .25884 1.2118 147.0 22.2 .228  88
2025 02 08 13  07 45 40.145   +39 04 03.34  .25909 1.2120 147.0 22.2 .246  88
2025 02 08 14  07 45 37.597   +38 59 54.50  .25934 1.2122 147.0 22.2 .264  87
2025 02 08 15  07 45 35.065   +38 55 46.07  .25958 1.2125 147.0 22.2 .283  87
2025 02 08 16  07 45 32.550   +38 51 38.04  .25983 1.2127 147.0 22.2 .302  87
2025 02 08 17  07 45 30.052   +38 47 30.41  .26008 1.2129 147.0 22.2 .321  87
2025 02 08 18  07 45 27.571   +38 43 23.19  .26033 1.2132 147.0 22.2 .341  87
2025 02 08 19  07 45 25.106   +38 39 16.37  .26058 1.2134 147.0 22.2 .361  87
2025 02 08 20  07 45 22.657   +38 35 09.96  .26083 1.2136 147.0 22.2 .381  87
2025 02 08 21  07 45 20.225   +38 31 03.95  .26108 1.2139 147.0 22.2 .402  87
2025 02 08 22  07 45 17.809   +38 26 58.34  .26133 1.2141 147.0 22.2 .423  87
2025 02 08 23  07 45 15.410   +38 22 53.13  .26158 1.2143 147.0 22.2 .444  87
2025 02 09 00  07 45 13.026   +38 18 48.33  .26184 1.2146 147.0 22.2 .466  87
2025 02 09 01  07 45 10.659   +38 14 43.94  .26209 1.2148 147.0 22.2 .488  87
2025 02 09 02  07 45 08.308   +38 10 39.94  .26234 1.2150 147.0 22.2 .510  86
2025 02 09 03  07 45 05.972   +38 06 36.35  .26259 1.2153 147.0 22.2 .533  86
2025 02 09 04  07 45 03.653   +38 02 33.17  .26285 1.2155 147.0 22.2 .556  86